Location: Roc des P�zouls
(43.9667°N, 3.5500°E)
Time: 08:59:55
(UTC+00:00)

FALCON 9 DEB - Pass Details

Date: 14 November 2019
Orbit: 430 x 444 km, 53.0° (Epoch: 06 December)

Event Time Altitude Azimuth Distance (km) Brightness Sun altitude
Exits shadow 05:04:20 30° 334° (NNW) 809 4.2 -17.0°
Maximum altitude 05:04:27 30° 339° (NNW) 807 4.2 -17.0°
Drops below altitude 10° 05:07:32 10° 42° (NE) 1,534 6.3 -16.5°
Sets 05:09:49 0° 54° (NE) 2,403 7.6 -16.1°
